| time (UTC) | temp C | wind direction | speed KPH | gust KPH | rain 1hr cm | rain 24hr cm | rain mn cm | humidity % | barometer mb |
| 20260510104529 | 8 | 302 | 0.0 | 0.0 | 0.00 | 0.00 | 0.00 | 94 | 1012.4 |
| 20260510104016 | 8 | 306 | 0.0 | 0.0 | 0.00 | 0.00 | 0.00 | 94 | 1012.3 |
| 20260510103515 | 8 | 5 | 0.0 | 0.0 | 0.00 | 0.00 | 0.00 | 93 | 1012.2 |
| 20260510103015 | 8 | 5 | 0.0 | 0.0 | 0.00 | 0.00 | 0.00 | 93 | 1012.2 |
| 20260510102514 | 8 | 5 | 0.0 | 0.0 | 0.00 | 0.00 | 0.00 | 93 | 1012.2 |
| 20260510102014 | 9 | 5 | 0.0 | 0.0 | 0.00 | 0.00 | 0.00 | 93 | 1012.1 |
| 20260510101513 | 9 | 5 | 0.0 | 0.0 | 0.00 | 0.00 | 0.00 | 93 | 1012.2 |
| 20260510101012 | 9 | 5 | 0.0 | 8.0 | 0.00 | 0.00 | 0.00 | 94 | 1012.1 |
| 20260510100511 | 9 | 325 | 0.0 | 8.0 | 0.00 | 0.00 | 0.00 | 94 | 1012.2 |
| 20260510100011 | 8 | 13 | 3.2 | 8.0 | 0.00 | 0.00 | 0.00 | 93 | 1012.2 |
| 20260510095510 | 8 | 15 | 0.0 | 4.8 | 0.00 | 0.00 | 0.00 | 93 | 1012.1 |
| 20260510095013 | 8 | 343 | 0.0 | 4.8 | 0.00 | 0.00 | 0.00 | 93 | 1012.1 |
| 20260510094519 | 8 | 355 | 0.0 | 3.2 | 0.00 | 0.00 | 0.00 | 93 | 1012.0 |
| 20260510094009 | 8 | 325 | 0.0 | 6.4 | 0.00 | 0.00 | 0.00 | 93 | 1011.9 |
| 20260510093509 | 9 | 325 | 1.6 | 6.4 | 0.00 | 0.00 | 0.00 | 93 | 1012.0 |
| 20260510093008 | 9 | 323 | 0.0 | 6.4 | 0.00 | 0.00 | 0.00 | 93 | 1011.9 |
| 20260510092506 | 9 | 319 | 1.6 | 6.4 | 0.00 | 0.00 | 0.00 | 94 | 1011.9 |
| 20260510092006 | 9 | 360 | 1.6 | 6.4 | 0.00 | 0.00 | 0.00 | 94 | 1011.9 |
| 20260510091505 | 8 | 9 | 0.0 | 6.4 | 0.00 | 0.00 | 0.00 | 94 | 1011.8 |
| 20260510091003 | 8 | 342 | 1.6 | 6.4 | 0.00 | 0.00 | 0.00 | 94 | 1011.7 |
| 20260510090502 | 8 | 329 | 0.0 | 6.4 | 0.00 | 0.00 | 0.00 | 93 | 1011.7 |
| 20260510090100 | 8 | 329 | 3.2 | 6.4 | 0.00 | 0.00 | 0.00 | 93 | 1011.6 |
| 20260510085600 | 8 | 31 | 1.6 | 6.4 | 0.00 | 0.00 | 0.00 | 93 | 1011.6 |
| 20260510085059 | 8 | 333 | 0.0 | 0.0 | 0.00 | 0.00 | 0.00 | 93 | 1011.6 |
| 20260510084603 | 8 | 5 | 0.0 | 0.0 | 0.00 | 0.00 | 0.00 | 93 | 1011.7 |
| 20260510084057 | 8 | 318 | 0.0 | 0.0 | 0.00 | 0.00 | 0.00 | 93 | 1011.7 |
| 20260510083559 | 8 | 5 | 0.0 | 0.0 | 0.00 | 0.00 | 0.00 | 93 | 1011.5 |
| 20260510083055 | 8 | 22 | 0.0 | 3.2 | 0.00 | 0.00 | 0.00 | 93 | 1011.4 |
| 20260510082554 | 8 | 13 | 0.0 | 3.2 | 0.00 | 0.00 | 0.00 | 93 | 1011.5 |
| 20260510082053 | 8 | 348 | 1.6 | 3.2 | 0.00 | 0.00 | 0.00 | 93 | 1011.4 |
| 20260510081557 | 8 | 36 | 0.0 | 6.4 | 0.00 | 0.00 | 0.00 | 93 | 1011.3 |
| 20260510081050 | 8 | 24 | 1.6 | 8.0 | 0.00 | 0.00 | 0.00 | 93 | 1011.2 |
| 20260510080549 | 9 | 31 | 4.8 | 8.0 | 0.00 | 0.00 | 0.00 | 93 | 1011.2 |
| 20260510080053 | 9 | 199 | 0.0 | 6.4 | 0.00 | 0.00 | 0.00 | 93 | 1011.2 |
| 20260510075550 | 8 | 320 | 0.0 | 0.0 | 0.00 | 0.00 | 0.00 | 93 | 1011.2 |
| 20260510075046 | 9 | 286 | 0.0 | 0.0 | 0.00 | 0.00 | 0.00 | 92 | 1011.2 |
| 20260510074545 | 9 | 89 | 0.0 | 0.0 | 0.00 | 0.00 | 0.00 | 92 | 1011.2 |
| 20260510074043 | 9 | 89 | 0.0 | 0.0 | 0.00 | 0.00 | 0.00 | 92 | 1011.1 |
| 20260510073542 | 9 | 44 | 0.0 | 0.0 | 0.00 | 0.00 | 0.00 | 91 | 1011.1 |
| 20260510073041 | 10 | 120 | 0.0 | 1.6 | 0.00 | 0.00 | 0.00 | 92 | 1010.9 |
| 20260510072540 | 10 | 186 | 0.0 | 4.8 | 0.00 | 0.00 | 0.00 | 91 | 1011.0 |
| 20260510072042 | 10 | 40 | 0.0 | 4.8 | 0.00 | 0.00 | 0.00 | 90 | 1010.9 |
| 20260510071538 | 10 | 360 | 0.0 | 0.0 | 0.00 | 0.00 | 0.00 | 91 | 1011.0 |
| 20260510071037 | 10 | 31 | 0.0 | 0.0 | 0.00 | 0.00 | 0.00 | 90 | 1011.1 |
| 20260510070539 | 10 | 31 | 0.0 | 0.0 | 0.00 | 0.00 | 0.00 | 90 | 1011.1 |
| 20260510070037 | 10 | 31 | 0.0 | 8.0 | 0.00 | 0.00 | 0.00 | 89 | 1011.1 |
| 20260510065534 | 10 | 31 | 1.6 | 8.0 | 0.00 | 0.00 | 0.00 | 89 | 1010.9 |
| 20260510065035 | 10 | 334 | 0.0 | 0.0 | 0.00 | 0.00 | 0.00 | 89 | 1010.9 |
| 20260510064531 | 10 | 31 | 0.0 | 0.0 | 0.00 | 0.00 | 0.00 | 88 | 1010.9 |
| 20260510064030 | 11 | 346 | 0.0 | 0.0 | 0.00 | 0.00 | 0.00 | 88 | 1010.9 |
| 20260510063529 | 11 | 346 | 0.0 | 0.0 | 0.00 | 0.00 | 0.00 | 88 | 1010.9 |
| 20260510063029 | 11 | 346 | 0.0 | 0.0 | 0.00 | 0.00 | 0.00 | 87 | 1011.0 |
| 20260510062527 | 11 | 346 | 0.0 | 0.0 | 0.00 | 0.00 | 0.00 | 86 | 1011.0 |
| 20260510062028 | 11 | 346 | 0.0 | 0.0 | 0.00 | 0.00 | 0.00 | 86 | 1011.0 |
| 20260510061528 | 11 | 346 | 0.0 | 0.0 | 0.00 | 0.00 | 0.00 | 85 | 1011.0 |
| 20260510061023 | 12 | 346 | 0.0 | 0.0 | 0.00 | 0.00 | 0.00 | 85 | 1011.1 |
| 20260510060525 | 12 | 346 | 0.0 | 4.8 | 0.00 | 0.00 | 0.00 | 84 | 1011.1 |
| 20260510060020 | 12 | 5 | 0.0 | 4.8 | 0.00 | 0.00 | 0.00 | 83 | 1011.1 |
| 20260510055519 | 12 | 174 | 0.0 | 0.0 | 0.00 | 0.00 | 0.00 | 83 | 1010.9 |
| 20260510055018 | 12 | 174 | 0.0 | 0.0 | 0.00 | 0.00 | 0.00 | 82 | 1010.8 |
| 20260510054517 | 13 | 174 | 0.0 | 0.0 | 0.00 | 0.00 | 0.00 | 81 | 1010.8 |
| 20260510054016 | 13 | 140 | 0.0 | 0.0 | 0.00 | 0.00 | 0.00 | 80 | 1010.7 |
| 20260510053513 | 13 | 140 | 0.0 | 0.0 | 0.00 | 0.00 | 0.00 | 78 | 1010.9 |
| 20260510053012 | 14 | 233 | 0.0 | 0.0 | 0.00 | 0.00 | 0.00 | 75 | 1010.8 |
| 20260510052511 | 14 | 298 | 0.0 | 0.0 | 0.00 | 0.00 | 0.00 | 75 | 1010.9 |
| 20260510052010 | 15 | 304 | 0.0 | 0.0 | 0.00 | 0.00 | 0.00 | 77 | 1011.0 |
| 20260510051517 | 15 | 214 | 0.0 | 0.0 | 0.00 | 0.00 | 0.00 | 77 | 1010.9 |
| 20260510051007 | 15 | 183 | 0.0 | 0.0 | 0.00 | 0.00 | 0.00 | 75 | 1010.8 |
| 20260510050505 | 15 | 183 | 0.0 | 0.0 | 0.00 | 0.00 | 0.00 | 72 | 1010.6 |
| 20260510050004 | 16 | 183 | 0.0 | 0.0 | 0.00 | 0.00 | 0.00 | 70 | 1010.6 |
| 20260510045506 | 16 | 182 | 0.0 | 0.0 | 0.00 | 0.00 | 0.00 | 70 | 1010.6 |
| 20260510045002 | 17 | 280 | 0.0 | 0.0 | 0.00 | 0.00 | 0.00 | 65 | 1010.6 |
| 20260510044559 | 17 | 272 | 0.0 | 0.0 | 0.00 | 0.00 | 0.00 | 64 | 1010.6 |
| 20260510044058 | 18 | 272 | 0.0 | 6.4 | 0.00 | 0.00 | 0.00 | 59 | 1010.7 |
| 20260510043557 | 19 | 278 | 1.6 | 16.1 | 0.00 | 0.00 | 0.00 | 57 | 1010.5 |
| 20260510043056 | 20 | 329 | 4.8 | 20.9 | 0.00 | 0.00 | 0.00 | 53 | 1010.4 |
| 20260510042558 | 20 | 15 | 8.0 | 20.9 | 0.00 | 0.00 | 0.00 | 53 | 1010.3 |
| 20260510042053 | 20 | 302 | 8.0 | 20.9 | 0.00 | 0.00 | 0.00 | 52 | 1010.4 |
| 20260510041624 | 20 | 330 | 8.0 | 22.5 | 0.00 | 0.00 | 0.00 | 52 | 1010.5 |
| 20260510041051 | 20 | 311 | 9.7 | 22.5 | 0.00 | 0.00 | 0.00 | 52 | 1010.5 |
| 20260510040550 | 20 | 315 | 8.0 | 22.5 | 0.00 | 0.00 | 0.00 | 52 | 1010.4 |
| 20260510040050 | 20 | 295 | 8.0 | 19.3 | 0.00 | 0.00 | 0.00 | 52 | 1010.4 |
| 20260510035550 | 20 | 335 | 11.3 | 19.3 | 0.00 | 0.00 | 0.00 | 52 | 1010.5 |
| 20260510035048 | 20 | 329 | 8.0 | 17.7 | 0.00 | 0.00 | 0.00 | 53 | 1010.5 |
| 20260510034555 | 20 | 314 | 4.8 | 24.1 | 0.00 | 0.00 | 0.00 | 54 | 1010.5 |
| 20260510034050 | 19 | 315 | 6.4 | 24.1 | 0.00 | 0.00 | 0.00 | 56 | 1010.5 |
| 20260510033547 | 17 | 303 | 6.4 | 19.3 | 0.00 | 0.00 | 0.00 | 61 | 1010.5 |
| 20260510033053 | 17 | 303 | 1.6 | 16.1 | 0.00 | 0.00 | 0.00 | 67 | 1010.6 |
| 20260510032547 | 17 | 317 | 6.4 | 16.1 | 0.00 | 0.00 | 0.00 | 65 | 1010.5 |
| 20260510032051 | 17 | 296 | 1.6 | 9.7 | 0.00 | 0.00 | 0.00 | 62 | 1010.5 |
| 20260510031553 | 18 | 262 | 1.6 | 14.5 | 0.00 | 0.00 | 0.00 | 61 | 1010.5 |
| 20260510031051 | 20 | 275 | 3.2 | 16.1 | 0.00 | 0.00 | 0.00 | 54 | 1010.4 |
| 20260510030546 | 20 | 289 | 6.4 | 16.1 | 0.00 | 0.00 | 0.00 | 50 | 1010.4 |
| 20260510030046 | 20 | 315 | 4.8 | 22.5 | 0.00 | 0.00 | 0.00 | 49 | 1010.3 |
| 20260510025546 | 21 | 314 | 4.8 | 24.1 | 0.00 | 0.00 | 0.00 | 48 | 1010.3 |
| 20260510025049 | 21 | 321 | 11.3 | 24.1 | 0.00 | 0.00 | 0.00 | 47 | 1010.3 |
| 20260510024605 | 21 | 5 | 12.9 | 24.1 | 0.00 | 0.00 | 0.00 | 47 | 1010.3 |
| 20260510024145 | 20 | 360 | 11.3 | 27.4 | 0.00 | 0.00 | 0.00 | 48 | 1010.2 |
| 20260510023545 | 20 | 345 | 12.9 | 20.9 | 0.00 | 0.00 | 0.00 | 49 | 1010.3 |
| 20260510023045 | 20 | 355 | 6.4 | 19.3 | 0.00 | 0.00 | 0.00 | 50 | 1010.2 |
| 20260510022544 | 20 | 344 | 8.0 | 19.3 | 0.00 | 0.00 | 0.00 | 51 | 1010.2 |
| 20260510022043 | 20 | 360 | 6.4 | 17.7 | 0.00 | 0.00 | 0.00 | 51 | 1010.1 |
| 20260510021544 | 20 | 5 | 11.3 | 17.7 | 0.00 | 0.00 | 0.00 | 52 | 1010.0 |
| 20260510021042 | 20 | 296 | 4.8 | 16.1 | 0.00 | 0.00 | 0.00 | 58 | 1009.9 |
| 20260510020542 | 20 | 331 | 8.0 | 16.1 | 0.00 | 0.00 | 0.00 | 53 | 1009.9 |
| 20260510020041 | 20 | 317 | 3.2 | 19.3 | 0.00 | 0.00 | 0.00 | 58 | 1009.7 |
| 20260510015541 | 19 | 320 | 6.4 | 19.3 | 0.00 | 0.00 | 0.00 | 57 | 1009.6 |
| 20260510015039 | 19 | 5 | 4.8 | 16.1 | 0.00 | 0.00 | 0.00 | 59 | 1009.5 |
| 20260510014540 | 18 | 292 | 3.2 | 16.1 | 0.00 | 0.00 | 0.00 | 63 | 1009.4 |
| 20260510014041 | 17 | 319 | 3.2 | 12.9 | 0.00 | 0.00 | 0.00 | 73 | 1009.4 |
| 20260510013542 | 17 | 355 | 4.8 | 16.1 | 0.00 | 0.00 | 0.00 | 69 | 1009.2 |
| 20260510013049 | 16 | 306 | 6.4 | 16.1 | 0.00 | 0.00 | 0.00 | 75 | 1009.0 |
| 20260510012543 | 15 | 313 | 3.2 | 9.7 | 0.00 | 0.00 | 0.00 | 81 | 1009.1 |
| 20260510012039 | 14 | 317 | 1.6 | 4.8 | 0.00 | 0.00 | 0.00 | 87 | 1009.1 |
| 20260510011539 | 15 | 322 | 0.0 | 1.6 | 0.00 | 0.00 | 0.00 | 87 | 1009.1 |
| 20260510011037 | 15 | 333 | 0.0 | 1.6 | 0.00 | 0.00 | 0.00 | 86 | 1008.9 |
| 20260510010537 | 15 | 333 | 0.0 | 3.2 | 0.00 | 0.00 | 0.00 | 86 | 1009.0 |
| 20260510010039 | 15 | 333 | 0.0 | 4.8 | 0.00 | 0.00 | 0.00 | 85 | 1008.9 |
| 20260510005537 | 15 | 10 | 0.0 | 3.2 | 0.00 | 0.00 | 0.00 | 85 | 1009.0 |
| 20260510005136 | 15 | 5 | 0.0 | 3.2 | 0.00 | 0.00 | 0.00 | 84 | 1008.8 |
| 20260510004544 | 16 | 5 | 0.0 | 3.2 | 0.00 | 0.00 | 0.00 | 83 | 1008.7 |
| 20260510004038 | 16 | 19 | 0.0 | 1.6 | 0.00 | 0.00 | 0.00 | 82 | 1008.6 |
| 20260510003537 | 16 | 35 | 0.0 | 3.2 | 0.00 | 0.00 | 0.00 | 81 | 1008.6 |
| 20260510003037 | 16 | 35 | 0.0 | 3.2 | 0.00 | 0.00 | 0.00 | 81 | 1008.5 |
| 20260510002537 | 16 | 355 | 0.0 | 3.2 | 0.00 | 0.00 | 0.00 | 80 | 1008.5 |
| 20260510002036 | 16 | 355 | 0.0 | 3.2 | 0.00 | 0.00 | 0.00 | 80 | 1008.4 |
| 20260510001536 | 17 | 355 | 0.0 | 3.2 | 0.00 | 0.00 | 0.00 | 79 | 1008.5 |
| 20260510001036 | 17 | 355 | 1.6 | 3.2 | 0.00 | 0.00 | 0.00 | 77 | 1008.4 |
| 20260510000536 | 17 | 296 | 0.0 | 3.2 | 0.00 | 0.00 | 0.00 | 76 | 1008.3 |
| 20260510000035 | 18 | 296 | 0.0 | 1.6 | 0.00 | 0.00 | 0.00 | 76 | 1008.3 |
| 20260509235537 | 18 | 296 | 0.0 | 1.6 | 0.00 | 0.00 | 0.00 | 76 | 1008.1 |
| 20260509235038 | 18 | 296 | 0.0 | 1.6 | 0.00 | 0.00 | 0.00 | 75 | 1008.2 |
| 20260509234535 | 19 | 296 | 0.0 | 1.6 | 0.00 | 0.00 | 0.00 | 74 | 1008.1 |
| 20260509234035 | 20 | 296 | 0.0 | 1.6 | 0.00 | 0.00 | 0.00 | 72 | 1008.1 |
| 20260509233535 | 20 | 296 | 0.0 | 3.2 | 0.00 | 0.00 | 0.00 | 71 | 1008.0 |
| 20260509233035 | 21 | 296 | 1.6 | 3.2 | 0.00 | 0.00 | 0.00 | 67 | 1008.0 |
| 20260509232534 | 22 | 271 | 0.0 | 3.2 | 0.00 | 0.00 | 0.00 | 65 | 1007.9 |
| 20260509232036 | 22 | 271 | 0.0 | 1.6 | 0.00 | 0.00 | 0.00 | 66 | 1007.9 |
| 20260509231534 | 23 | 271 | 0.0 | 1.6 | 0.00 | 0.00 | 0.00 | 68 | 1007.8 |
| 20260509231035 | 23 | 271 | 0.0 | 0.0 | 0.00 | 0.00 | 0.00 | 65 | 1007.8 |
| 20260509230534 | 23 | 271 | 0.0 | 3.2 | 0.00 | 0.00 | 0.00 | 66 | 1007.8 |
| 20260509230033 | 23 | 271 | 0.0 | 3.2 | 0.00 | 0.00 | 0.00 | 59 | 1007.8 |
| 20260509225534 | 23 | 327 | 0.0 | 3.2 | 0.00 | 0.00 | 0.00 | 62 | 1007.8 |
| 20260509225031 | 23 | 284 | 0.0 | 3.2 | 0.00 | 0.00 | 0.00 | 61 | 1007.8 |
| 20260509224534 | 22 | 302 | 0.0 | 1.6 | 0.00 | 0.00 | 0.00 | 61 | 1007.8 |
| 20260509224033 | 23 | 302 | 0.0 | 6.4 | 0.00 | 0.00 | 0.00 | 62 | 1007.9 |
| 20260509223531 | 23 | 302 | 0.0 | 6.4 | 0.00 | 0.00 | 0.00 | 66 | 1007.9 |
| 20260509223035 | 23 | 300 | 0.0 | 3.2 | 0.00 | 0.00 | 0.00 | 64 | 1007.9 |
| 20260509222535 | 23 | 300 | 0.0 | 4.8 | 0.00 | 0.00 | 0.00 | 65 | 1007.9 |
| 20260509222035 | 22 | 339 | 1.6 | 4.8 | 0.00 | 0.00 | 0.00 | 68 | 1007.9 |
| 20260509221533 | 22 | 263 | 0.0 | 1.6 | 0.00 | 0.00 | 0.00 | 66 | 1008.0 |
| 20260509221030 | 22 | 263 | 0.0 | 1.6 | 0.00 | 0.00 | 0.00 | 66 | 1008.0 |
| 20260509220530 | 22 | 263 | 0.0 | 0.0 | 0.00 | 0.00 | 0.00 | 70 | 1007.9 |
| 20260509220031 | 21 | 263 | 0.0 | 0.0 | 0.00 | 0.00 | 0.00 | 71 | 1008.0 |
| 20260509215529 | 21 | 263 | 0.0 | 0.0 | 0.00 | 0.00 | 0.00 | 72 | 1007.9 |
| 20260509215028 | 21 | 263 | 0.0 | 0.0 | 0.00 | 0.00 | 0.00 | 70 | 1007.9 |
| 20260509214528 | 21 | 263 | 0.0 | 0.0 | 0.00 | 0.00 | 0.00 | 67 | 1007.9 |
| 20260509214028 | 21 | 263 | 0.0 | 0.0 | 0.00 | 0.00 | 0.00 | 67 | 1007.8 |
| 20260509213530 | 22 | 263 | 0.0 | 1.6 | 0.00 | 0.00 | 0.00 | 63 | 1007.8 |
| 20260509213029 | 22 | 263 | 0.0 | 4.8 | 0.00 | 0.00 | 0.00 | 62 | 1007.8 |
| 20260509212528 | 22 | 271 | 1.6 | 4.8 | 0.00 | 0.00 | 0.00 | 61 | 1007.9 |
| 20260509212027 | 22 | 323 | 0.0 | 3.2 | 0.00 | 0.00 | 0.00 | 63 | 1007.9 |
| 20260509211527 | 22 | 342 | 0.0 | 0.0 | 0.00 | 0.00 | 0.00 | 66 | 1007.8 |
| 20260509211027 | 22 | 342 | 0.0 | 1.6 | 0.00 | 0.00 | 0.00 | 65 | 1007.9 |
| 20260509210526 | 22 | 342 | 0.0 | 4.8 | 0.00 | 0.00 | 0.00 | 63 | 1007.8 |
| 20260509210033 | 22 | 342 | 1.6 | 4.8 | 0.00 | 0.00 | 0.00 | 61 | 1007.8 |
| 20260509205525 | 22 | 317 | 0.0 | 3.2 | 0.00 | 0.00 | 0.00 | 59 | 1007.7 |
| 20260509205028 | 22 | 317 | 0.0 | 9.7 | 0.00 | 0.00 | 0.00 | 60 | 1007.8 |
| 20260509204525 | 22 | 295 | 1.6 | 9.7 | 0.00 | 0.00 | 0.00 | 60 | 1007.7 |
| 20260509204025 | 22 | 318 | 0.0 | 3.2 | 0.00 | 0.00 | 0.00 | 63 | 1007.7 |
| 20260509203525 | 22 | 246 | 0.0 | 3.2 | 0.00 | 0.00 | 0.00 | 63 | 1007.8 |
| 20260509203026 | 22 | 206 | 0.0 | 9.7 | 0.00 | 0.00 | 0.00 | 61 | 1007.8 |
| 20260509202527 | 22 | 291 | 4.8 | 9.7 | 0.00 | 0.00 | 0.00 | 61 | 1007.7 |
| 20260509202024 | 22 | 323 | 1.6 | 11.3 | 0.00 | 0.00 | 0.00 | 60 | 1007.7 |
| 20260509201527 | 21 | 287 | 4.8 | 12.9 | 0.00 | 0.00 | 0.00 | 59 | 1007.7 |
| 20260509201026 | 21 | 269 | 3.2 | 9.7 | 0.00 | 0.00 | 0.00 | 61 | 1007.8 |
| 20260509200523 | 21 | 284 | 3.2 | 9.7 | 0.00 | 0.00 | 0.00 | 60 | 1007.6 |
| 20260509200023 | 21 | 246 | 1.6 | 9.7 | 0.00 | 0.00 | 0.00 | 60 | 1007.7 |
| 20260509195523 | 21 | 288 | 1.6 | 9.7 | 0.00 | 0.00 | 0.00 | 59 | 1007.6 |
| 20260509195021 | 22 | 266 | 3.2 | 9.7 | 0.00 | 0.00 | 0.00 | 59 | 1007.7 |
| 20260509194525 | 22 | 283 | 1.6 | 8.0 | 0.00 | 0.00 | 0.00 | 59 | 1007.7 |
| 20260509194021 | 22 | 13 | 1.6 | 8.0 | 0.00 | 0.00 | 0.00 | 57 | 1007.7 |
| 20260509193519 | 22 | 255 | 1.6 | 8.0 | 0.00 | 0.00 | 0.00 | 56 | 1007.8 |
| 20260509193020 | 23 | 202 | 1.6 | 9.7 | 0.00 | 0.00 | 0.00 | 56 | 1007.9 |
| 20260509192517 | 23 | 233 | 1.6 | 17.7 | 0.00 | 0.00 | 0.00 | 60 | 1007.9 |
| 20260509192016 | 23 | 253 | 3.2 | 17.7 | 0.00 | 0.00 | 0.00 | 59 | 1008.0 |
| 20260509191515 | 23 | 296 | 4.8 | 14.5 | 0.00 | 0.00 | 0.00 | 57 | 1007.9 |
| 20260509191016 | 23 | 181 | 1.6 | 8.0 | 0.00 | 0.00 | 0.00 | 58 | 1008.1 |
| 20260509190513 | 23 | 242 | 1.6 | 12.9 | 0.00 | 0.00 | 0.00 | 60 | 1008.0 |
| 20260509190012 | 22 | 101 | 3.2 | 12.9 | 0.00 | 0.00 | 0.00 | 61 | 1008.1 |
| 20260509185515 | 22 | 115 | 1.6 | 9.7 | 0.00 | 0.00 | 0.00 | 61 | 1008.1 |
| 20260509185010 | 22 | 190 | 3.2 | 14.5 | 0.00 | 0.00 | 0.00 | 58 | 1008.2 |
| 20260509184515 | 22 | 267 | 4.8 | 14.5 | 0.00 | 0.00 | 0.00 | 61 | 1008.3 |
| 20260509184008 | 21 | 194 | 1.6 | 9.7 | 0.00 | 0.00 | 0.00 | 63 | 1008.4 |
| 20260509183508 | 21 | 288 | 1.6 | 19.3 | 0.00 | 0.00 | 0.00 | 59 | 1008.6 |
| 20260509183007 | 22 | 71 | 1.6 | 19.3 | 0.00 | 0.00 | 0.00 | 60 | 1008.6 |
| 20260509182604 | 22 | 312 | 9.7 | 19.3 | 0.00 | 0.00 | 0.00 | 57 | 1008.6 |
| 20260509182003 | 22 | 243 | 6.4 | 17.7 | 0.00 | 0.00 | 0.00 | 60 | 1008.6 |
| 20260509181502 | 22 | 286 | 3.2 | 9.7 | 0.00 | 0.00 | 0.00 | 62 | 1008.6 |
| 20260509181100 | 22 | 270 | 0.0 | 16.1 | 0.00 | 0.00 | 0.00 | 62 | 1008.5 |
| 20260509180559 | 22 | 133 | 6.4 | 16.1 | 0.00 | 0.00 | 0.00 | 62 | 1008.6 |
| 20260509180058 | 21 | 189 | 3.2 | 8.0 | 0.00 | 0.00 | 0.00 | 62 | 1008.7 |
| 20260509175558 | 21 | 203 | 1.6 | 9.7 | 0.00 | 0.00 | 0.00 | 62 | 1008.9 |
| 20260509175056 | 21 | 279 | 1.6 | 16.1 | 0.00 | 0.00 | 0.00 | 65 | 1009.0 |
| 20260509174556 | 21 | 74 | 3.2 | 16.1 | 0.00 | 0.00 | 0.00 | 61 | 1009.1 |
| 20260509174054 | 22 | 300 | 1.6 | 16.1 | 0.00 | 0.00 | 0.00 | 65 | 1009.0 |
| 20260509173553 | 22 | 303 | 3.2 | 22.5 | 0.00 | 0.00 | 0.00 | 61 | 1009.0 |
| 20260509173117 | 22 | 171 | 3.2 | 22.5 | 0.00 | 0.00 | 0.00 | 66 | 1009.0 |
| 20260509172551 | 21 | 234 | 3.2 | 12.9 | 0.00 | 0.00 | 0.00 | 70 | 1009.1 |
| 20260509172051 | 21 | 300 | 3.2 | 17.7 | 0.00 | 0.00 | 0.00 | 64 | 1009.2 |
| 20260509171549 | 21 | 300 | 3.2 | 12.9 | 0.00 | 0.00 | 0.00 | 66 | 1009.1 |
| 20260509171047 | 21 | 247 | 3.2 | 19.3 | 0.00 | 0.00 | 0.00 | 65 | 1009.3 |
| 20260509170548 | 21 | 288 | 6.4 | 19.3 | 0.00 | 0.00 | 0.00 | 63 | 1009.4 |
| 20260509170054 | 21 | 292 | 3.2 | 11.3 | 0.00 | 0.00 | 0.00 | 68 | 1009.6 |
| 20260509165544 | 21 | 305 | 1.6 | 12.9 | 0.00 | 0.00 | 0.00 | 67 | 1009.6 |
| 20260509165042 | 21 | 283 | 1.6 | 16.1 | 0.00 | 0.00 | 0.00 | 70 | 1009.7 |
| 20260509164541 | 21 | 284 | 1.6 | 12.9 | 0.00 | 0.00 | 0.00 | 67 | 1009.8 |
| 20260509164040 | 20 | 198 | 3.2 | 14.5 | 0.00 | 0.00 | 0.00 | 70 | 1009.8 |
| 20260509163538 | 20 | 281 | 4.8 | 14.5 | 0.00 | 0.00 | 0.00 | 67 | 1009.7 |
| 20260509163037 | 19 | 298 | 0.0 | 11.3 | 0.00 | 0.00 | 0.00 | 73 | 1009.7 |
| 20260509162540 | 18 | 271 | 3.2 | 11.3 | 0.00 | 0.00 | 0.00 | 71 | 1009.7 |
| 20260509162034 | 18 | 202 | 1.6 | 6.4 | 0.00 | 0.00 | 0.00 | 72 | 1009.8 |
| 20260509161539 | 18 | 308 | 0.0 | 3.2 | 0.00 | 0.00 | 0.00 | 73 | 1009.9 |
| 20260509161033 | 18 | 223 | 0.0 | 4.8 | 0.00 | 0.00 | 0.00 | 74 | 1010.0 |
| 20260509160531 | 18 | 267 | 0.0 | 6.4 | 0.00 | 0.00 | 0.00 | 71 | 1010.2 |
| 20260509160030 | 18 | 281 | 0.0 | 0.0 | 0.00 | 0.00 | 0.00 | 72 | 1010.2 |
| 20260509155529 | 18 | 197 | 0.0 | 3.2 | 0.00 | 0.00 | 0.00 | 73 | 1010.3 |
| 20260509155030 | 18 | 195 | 0.0 | 3.2 | 0.00 | 0.00 | 0.00 | 72 | 1010.3 |
| 20260509154527 | 17 | 318 | 0.0 | 4.8 | 0.00 | 0.00 | 0.00 | 72 | 1010.4 |
| 20260509154027 | 17 | 286 | 0.0 | 6.4 | 0.00 | 0.00 | 0.00 | 73 | 1010.5 |
| 20260509153525 | 17 | 267 | 0.0 | 6.4 | 0.00 | 0.00 | 0.00 | 71 | 1010.5 |
| 20260509153032 | 17 | 247 | 0.0 | 11.3 | 0.00 | 0.00 | 0.00 | 75 | 1010.4 |
| 20260509152524 | 17 | 176 | 0.0 | 6.4 | 0.00 | 0.00 | 0.00 | 73 | 1010.2 |
| 20260509152024 | 16 | 200 | 0.0 | 6.4 | 0.00 | 0.00 | 0.00 | 73 | 1010.3 |
| 20260509151522 | 16 | 190 | 1.6 | 6.4 | 0.00 | 0.00 | 0.00 | 72 | 1010.3 |
| 20260509151025 | 17 | 196 | 0.0 | 6.4 | 0.00 | 0.00 | 0.00 | 71 | 1010.3 |
| 20260509150519 | 17 | 200 | 0.0 | 11.3 | 0.00 | 0.00 | 0.00 | 73 | 1010.3 |
| 20260509150019 | 17 | 161 | 0.0 | 9.7 | 0.00 | 0.00 | 0.00 | 72 | 1010.4 |
| 20260509145518 | 17 | 293 | 0.0 | 6.4 | 0.00 | 0.00 | 0.00 | 75 | 1010.5 |
| 20260509145017 | 16 | 304 | 1.6 | 8.0 | 0.00 | 0.00 | 0.00 | 74 | 1010.6 |
| 20260509144517 | 16 | 313 | 1.6 | 12.9 | 0.00 | 0.00 | 0.00 | 74 | 1010.8 |
| 20260509144016 | 16 | 182 | 1.6 | 12.9 | 0.00 | 0.00 | 0.00 | 74 | 1010.7 |
| 20260509143522 | 16 | 94 | 0.0 | 6.4 | 0.00 | 0.00 | 0.00 | 73 | 1010.7 |
| 20260509143017 | 16 | 163 | 0.0 | 6.4 | 0.00 | 0.00 | 0.00 | 73 | 1010.5 |
| 20260509142515 | 16 | 216 | 0.0 | 4.8 | 0.00 | 0.00 | 0.00 | 72 | 1010.6 |
| 20260509142015 | 16 | 29 | 0.0 | 4.8 | 0.00 | 0.00 | 0.00 | 73 | 1010.4 |
| 20260509141514 | 16 | 215 | 0.0 | 4.8 | 0.00 | 0.00 | 0.00 | 72 | 1010.2 |
| 20260509141015 | 16 | 261 | 0.0 | 4.8 | 0.00 | 0.00 | 0.00 | 72 | 1010.0 |
| 20260509140510 | 16 | 240 | 0.0 | 4.8 | 0.00 | 0.00 | 0.00 | 72 | 1010.2 |
| 20260509140013 | 16 | 198 | 0.0 | 3.2 | 0.00 | 0.00 | 0.00 | 74 | 1010.5 |
| 20260509135508 | 16 | 293 | 0.0 | 4.8 | 0.00 | 0.00 | 0.00 | 73 | 1010.6 |
| 20260509135007 | 15 | 185 | 1.6 | 4.8 | 0.00 | 0.00 | 0.00 | 73 | 1010.7 |
| 20260509134506 | 15 | 212 | 0.0 | 4.8 | 0.00 | 0.00 | 0.00 | 75 | 1010.9 |
| 20260509134009 | 15 | 220 | 0.0 | 4.8 | 0.00 | 0.00 | 0.00 | 76 | 1010.8 |
| 20260509133504 | 14 | 288 | 1.6 | 11.3 | 0.00 | 0.00 | 0.00 | 76 | 1011.0 |
| 20260509133002 | 14 | 261 | 1.6 | 11.3 | 0.00 | 0.00 | 0.00 | 76 | 1010.9 |
| 20260509132502 | 14 | 192 | 0.0 | 4.8 | 0.00 | 0.00 | 0.00 | 76 | 1010.9 |
| 20260509132000 | 13 | 184 | 0.0 | 4.8 | 0.00 | 0.00 | 0.00 | 77 | 1011.0 |
| 20260509131605 | 13 | 139 | 0.0 | 4.8 | 0.00 | 0.00 | 0.00 | 78 | 1010.9 |
| 20260509131057 | 13 | 183 | 0.0 | 4.8 | 0.00 | 0.00 | 0.00 | 78 | 1010.9 |
| 20260509130556 | 12 | 207 | 0.0 | 0.0 | 0.00 | 0.00 | 0.00 | 78 | 1011.1 |
| 20260509130126 | 12 | 202 | 0.0 | 0.0 | 0.00 | 0.00 | 0.00 | 79 | 1011.2 |
| 20260509125554 | 12 | 83 | 0.0 | 3.2 | 0.00 | 0.00 | 0.00 | 82 | 1011.1 |
| 20260509125052 | 11 | 299 | 0.0 | 3.2 | 0.00 | 0.00 | 0.00 | 83 | 1011.3 |
| 20260509124551 | 11 | 108 | 0.0 | 3.2 | 0.00 | 0.00 | 0.00 | 85 | 1011.3 |
| 20260509124050 | 11 | 194 | 0.0 | 3.2 | 0.00 | 0.00 | 0.00 | 86 | 1011.3 |
| 20260509123549 | 10 | 215 | 0.0 | 0.0 | 0.00 | 0.00 | 0.00 | 89 | 1011.4 |
| 20260509123116 | 10 | 215 | 0.0 | 0.0 | 0.00 | 0.00 | 0.00 | 89 | 1011.3 |
| 20260509122548 | 10 | 215 | 0.0 | 1.6 | 0.00 | 0.00 | 0.00 | 90 | 1011.3 |
| 20260509122049 | 10 | 218 | 0.0 | 1.6 | 0.00 | 0.00 | 0.00 | 90 | 1011.3 |
| 20260509121548 | 9 | 288 | 0.0 | 3.2 | 0.00 | 0.00 | 0.00 | 92 | 1011.2 |
| 20260509121048 | 9 | 288 | 0.0 | 3.2 | 0.00 | 0.00 | 0.00 | 93 | 1011.2 |
| 20260509120547 | 8 | 200 | 0.0 | 0.0 | 0.00 | 0.00 | 0.00 | 94 | 1011.3 |
| 20260509120049 | 8 | 200 | 0.0 | 1.6 | 0.00 | 0.00 | 0.00 | 95 | 1011.2 |
| 20260509115547 | 8 | 299 | 0.0 | 6.4 | 0.00 | 0.00 | 0.00 | 95 | 1011.2 |
| 20260509115044 | 7 | 299 | 0.0 | 6.4 | 0.00 | 0.00 | 0.00 | 95 | 1011.3 |
| 20260509114611 | 7 | 45 | 0.0 | 0.0 | 0.00 | 0.00 | 0.00 | 95 | 1011.3 |
| 20260509114043 | 7 | 45 | 0.0 | 0.0 | 0.00 | 0.00 | 0.00 | 95 | 1011.3 |
| 20260509113542 | 7 | 45 | 0.0 | 0.0 | 0.00 | 0.00 | 0.00 | 95 | 1011.3 |
| 20260509113045 | 6 | 41 | 0.0 | 0.0 | 0.00 | 0.00 | 0.00 | 95 | 1011.3 |
| 20260509112542 | 6 | 41 | 0.0 | 0.0 | 0.00 | 0.00 | 0.00 | 95 | 1011.3 |
| 20260509112039 | 6 | 55 | 0.0 | 0.0 | 0.00 | 0.00 | 0.00 | 95 | 1011.3 |
| 20260509111538 | 6 | 39 | 0.0 | 0.0 | 0.00 | 0.00 | 0.00 | 95 | 1011.1 |
| 20260509111038 | 6 | 39 | 0.0 | 0.0 | 0.00 | 0.00 | 0.00 | 95 | 1011.3 |
| 20260509110537 | 6 | 39 | 0.0 | 0.0 | 0.00 | 0.00 | 0.00 | 95 | 1011.2 |
| 20260509110035 | 6 | 39 | 0.0 | 0.0 | 0.00 | 0.00 | 0.00 | 95 | 1011.1 |
| 20260509105534 | 5 | 39 | 0.0 | 0.0 | 0.00 | 0.00 | 0.00 | 95 | 1011.1 |
| 20260509105035 | 5 | 39 | 0.0 | 0.0 | 0.00 | 0.00 | 0.00 | 95 | 1011.1 |